This is the latest recevied weather packets stored in our database for station/object EA5CLU-13. If no packets are shown the sender has not sent any weather packets the latest 10 day(s).
| Time | Temp. | Humidity | Pressure | Rain* | Wind** | Luminosity | Snow |
|---|---|---|---|---|---|---|---|
| 1787861353 | 24.44° C | - | 1016.8 hPa | 0 mm | - | - | - |
| 1787861053 | 24.44° C | - | 1016.8 hPa | 0 mm | - | - | - |
| 1787860754 | 24.44° C | - | 1016.6 hPa | 0 mm | - | - | - |
| 1787860454 | 25° C | - | 1016.5 hPa | 0 mm | - | - | - |
| 1787859853 | 25° C | - | 1015.8 hPa | 0 mm | - | - | - |
| 1787859253 | 25° C | - | 1015.3 hPa | 0 mm | - | - | - |
| 1787858354 | 25.56° C | - | 1015.2 hPa | 0 mm | - | - | - |
| 1787858054 | 25.56° C | - | 1015.1 hPa | 0 mm | - | - | - |
| 1787857153 | 25.56° C | - | 1014.9 hPa | 0 mm | - | - | - |
| 1787856852 | 25.56° C | - | 1014.6 hPa | 0 mm | - | - | - |
| 1787856552 | 25.56° C | - | 1014.8 hPa | 0 mm | - | - | - |
| 1787856254 | 26.11° C | - | 1015 hPa | 0 mm | - | - | - |
| 1787855954 | 26.11° C | - | 1015.2 hPa | 0 mm | - | - | - |
| 1787855654 | 26.11° C | - | 1015.3 hPa | 0 mm | - | - | - |
| 1787855354 | 26.67° C | - | 1014.7 hPa | 0 mm | - | - | - |
| 1787855054 | 26.67° C | - | 1014.5 hPa | 0 mm | - | - | - |
| 1787854753 | 26.67° C | - | 1014.1 hPa | 0 mm | - | - | - |
| 1787854453 | 26.67° C | - | 1014.2 hPa | 0 mm | - | - | - |
| 1787854153 | 26.67° C | - | 1014 hPa | 0 mm | - | - | - |
| 1787853854 | 27.22° C | - | 1013.9 hPa | 0 mm | - | - | - |
| 1787853552 | 27.22° C | - | 1013.9 hPa | 0 mm | - | - | - |
| 1787852953 | 27.22° C | - | 1013.7 hPa | 0 mm | - | - | - |
| 1787852654 | 27.78° C | - | 1013.6 hPa | 0 mm | - | - | - |
| 1787852354 | 27.22° C | - | 1013.6 hPa | 0 mm | - | - | - |
| 1787852054 | 27.78° C | - | 1013.8 hPa | 0 mm | - | - | - |
* Rain latest hour (hover to see other rain measurements)
** Current wind speed in m/s (hover to see current wind gust speed)